Lehigh Valley, PA

10:28 AM EDT on August 31, 2016 (GMT -0400)
Lehigh Valley International

Weather History for KABE - November, 2012

Change the Weather History Date:

Tuesday, November 6, 2012

  Actual Average Record
Temperature  
Mean Temperature 33 °F 46 °F  
Max Temperature 43 °F 56 °F 78 °F (1948)
Min Temperature 22 °F 36 °F 19 °F (1991)
Degree Days  
Heating Degree Days 32 19  
Month to date heating degree days 150 110  
Since 1 July heating degree days 540 621  
Cooling Degree Days 0 0  
Month to date cooling degree days 0 0  
Year to date cooling degree days 1048 757  
Moisture  
Dew Point 22 °F    
Average Humidity 66    
Maximum Humidity 88    
Minimum Humidity 44    
Precipitation  
Precipitation 0.00 in 0.11 in 1.19 in (1963)
Month to date precipitation T 0.66  
Year to date precipitation 35.71 38.93  
Snow  
Snow 0.00 in 0.00 in 2.90 in (1953)
Month to date snowfall 0.0 0.0  
Since 1 July snowfall 0.0 0.0  
Since 1 September snowfall 0.0 0.0  
Snow Depth 0.00 in    
Sea Level Pressure  
Sea Level Pressure 30.18 in    
Wind  
Wind Speed 3 mph (ENE)    
Max Wind Speed 10 mph    
Max Gust Speed 14 mph    
Visibility 10 miles    
Events      
T = Trace of Precipitation, MM = Missing Value Source: NWS Daily Summary

Daily Weather History Graph

Daily Weather History Graph

Search for Another Location

Airport or City:

Trip Planner

Search our weather history database for the weather conditions in past years. The results will help you decide how hot, cold, wet, or windy it might be!

Date:

Astronomy

Nov. 06, 2012 Rise Set
Actual Time 6:38 AM EST 4:51 PM EST
Civil Twilight 6:09 AM EST 5:20 PM EST
Nautical Twilight 5:37 AM EST 5:53 PM EST
Astronomical Twilight 5:05 AM EST 6:25 PM EST
Moon 11:28 PM EST (11/6) 12:29 PM EST (11/6)
Length of Visible Light 11h 11m
Length of Day
10h 13m
Waning Gibbous, 53% of the Moon is Illuminated
Nov 6
Waning Gibbous
Nov 6
Last Quarter
Nov 13
New
Nov 20
First Quarter
Nov 28
Full

Hourly Weather History & Observations

Time (EST) Temp. Windchill Dew Point Humidity Pressure Visibility Wind Dir Wind Speed Gust Speed Precip Events Conditions
12:51 AM 28.9 °F 25.2 °F 21.9 °F 75% 30.21 in 10.0 mi North 3.5 mph - N/A   Clear
1:51 AM 27.0 °F 23.0 °F 19.9 °F 75% 30.20 in 10.0 mi North 3.5 mph - N/A   Clear
2:51 AM 25.0 °F - 19.0 °F 78% 30.20 in 10.0 mi Calm Calm - N/A   Clear
3:51 AM 26.1 °F - 19.9 °F 78% 30.18 in 10.0 mi Calm Calm - N/A   Clear
4:51 AM 24.1 °F - 21.0 °F 88% 30.20 in 10.0 mi Calm Calm - N/A   Clear
5:51 AM 24.1 °F - 19.0 °F 81% 30.22 in 10.0 mi Calm Calm - N/A   Clear
6:51 AM 23.0 °F - 19.0 °F 85% 30.23 in 10.0 mi Calm Calm - N/A   Clear
7:51 AM 26.1 °F - 21.0 °F 81% 30.24 in 10.0 mi Calm Calm - N/A   Clear
8:51 AM 32.0 °F - 23.0 °F 69% 30.24 in 10.0 mi Calm Calm - N/A   Clear
9:51 AM 35.1 °F 29.3 °F 21.0 °F 57% 30.25 in 10.0 mi East 6.9 mph - N/A   Clear
10:51 AM 39.0 °F 34.0 °F 21.9 °F 50% 30.24 in 10.0 mi NE 6.9 mph - N/A   Scattered Clouds
11:51 AM 39.0 °F 36.8 °F 19.9 °F 46% 30.22 in 10.0 mi ESE 3.5 mph - N/A   Mostly Cloudy
12:51 PM 39.9 °F 37.8 °F 21.0 °F 47% 30.19 in 10.0 mi Variable 3.5 mph - N/A   Mostly Cloudy
1:51 PM 41.0 °F 39.0 °F 23.0 °F 49% 30.16 in 10.0 mi SW 3.5 mph - N/A   Mostly Cloudy
2:51 PM 42.1 °F 40.2 °F 24.1 °F 49% 30.15 in 10.0 mi NNE 3.5 mph - N/A   Mostly Cloudy
3:51 PM 39.9 °F 37.8 °F 26.1 °F 58% 30.14 in 10.0 mi ENE 3.5 mph - N/A   Clear
4:51 PM 37.9 °F 33.5 °F 24.1 °F 57% 30.13 in 10.0 mi ESE 5.8 mph - N/A   Clear
5:51 PM 37.0 °F 33.3 °F 24.1 °F 59% 30.14 in 10.0 mi East 4.6 mph - N/A   Clear
6:51 PM 32.0 °F 26.4 °F 23.0 °F 69% 30.12 in 10.0 mi NE 5.8 mph - N/A   Clear
7:51 PM 30.0 °F 26.5 °F 21.9 °F 72% 30.12 in 10.0 mi ESE 3.5 mph - N/A   Clear
8:51 PM 30.9 °F 22.8 °F 23.0 °F 72% 30.10 in 10.0 mi NE 9.2 mph - N/A   Clear
9:51 PM 32.0 °F 28.7 °F 21.9 °F 66% 30.12 in 10.0 mi ESE 3.5 mph - N/A   Clear
10:51 PM 30.0 °F 26.5 °F 21.0 °F 69% 30.10 in 10.0 mi ENE 3.5 mph - N/A   Clear
11:51 PM 30.9 °F - 21.0 °F 67% 30.10 in 10.0 mi Calm Calm - N/A   Clear